The Dalles, WA

8:29 AM PST on February 24, 2018 (GMT -0800)
Columbia Gorge Regional-The Dalles

Weather History for KDLS - January, 2013

Change the Weather History Date:

Sunday, January 6, 2013

  Actual Average Record
Temperature  
Mean Temperature 28 °F -  
Max Temperature 34 °F 38 °F 59 °F (2009)
Min Temperature 21 °F 26 °F -4 °F (1979)
Degree Days  
Heating Degree Days 38    
Moisture  
Dew Point 25 °F    
Average Humidity 85    
Maximum Humidity 100    
Minimum Humidity 72    
Precipitation  
Precipitation 0.00 in - - ()
Sea Level Pressure  
Sea Level Pressure 30.24 in    
Wind  
Wind Speed 0 mph (ESE)    
Max Wind Speed 4 mph    
Max Gust Speed -    
Visibility 6 miles    
Events      
Averages and records for this station are not official NWS values.
T = Trace of Precipitation, MM = Missing Value Source: NWS Daily Summary

Daily Weather History Graph

Daily Weather History Graph

Search for Another Location

Airport or City:

Trip Planner

Search our weather history database for the weather conditions in past years. The results will help you decide how hot, cold, wet, or windy it might be!

Date:

Astronomy

Jan. 06, 2013 Rise Set
Actual Time 7:44 AM PST 4:37 PM PST
Civil Twilight 7:10 AM PST 5:10 PM PST
Nautical Twilight 6:33 AM PST 5:48 PM PST
Astronomical Twilight 5:57 AM PST 6:24 PM PST
Moon 1:58 AM PST (1/6) 12:13 PM PST (1/6)
Length of Visible Light 9h 59m
Length of Day
8h 52m
Waning Crescent, 32% of the Moon is Illuminated
Jan 6
Waning Crescent
Jan 11
New
Jan 18
First Quarter
Jan 26
Full
Feb 3
Last Quarter

Hourly Weather History & Observations

Time (PST) Temp. Windchill Dew Point Humidity Pressure Visibility Wind Dir Wind Speed Gust Speed Precip Events Conditions
12:05 AM 28.4 °F - 26.6 °F 93% 30.28 in 2.5 mi Calm Calm - N/A   Overcast
12:11 AM 28.4 °F - 26.6 °F 93% 30.28 in 3.0 mi Calm Calm - N/A   Overcast
12:26 AM 28.4 °F - 26.6 °F 93% 30.29 in 4.0 mi Calm Calm - N/A   Overcast
12:48 AM 28.4 °F - 26.6 °F 93% 30.27 in 3.0 mi Calm Calm - N/A   Overcast
12:53 AM 28.9 °F - 27.0 °F 92% 30.28 in 4.0 mi Calm Calm - N/A   Overcast
1:53 AM 28.0 °F - 25.0 °F 88% 30.28 in 5.0 mi Calm Calm - N/A   Scattered Clouds
2:14 AM 24.8 °F - 23.0 °F 93% 30.27 in 2.5 mi Calm Calm - N/A   Partly Cloudy
2:26 AM 26.6 °F - 24.8 °F 93% 30.27 in 4.0 mi Calm Calm - N/A   Partly Cloudy
2:44 AM 24.8 °F - 23.0 °F 93% 30.27 in 1.8 mi Calm Calm - N/A   Clear
2:53 AM 23.0 °F - 21.0 °F 92% 30.28 in 1.5 mi Calm Calm - N/A   Partly Cloudy
3:01 AM 21.2 °F - 21.2 °F 100% 30.27 in 3.0 mi Calm Calm - N/A   Scattered Clouds
3:16 AM 24.8 °F - 21.2 °F 86% 30.27 in 4.0 mi Calm Calm - N/A   Mostly Cloudy
3:32 AM 24.8 °F - 23.0 °F 93% 30.27 in 5.0 mi Calm Calm - N/A   Overcast
3:53 AM 25.0 °F 20.7 °F 21.9 °F 88% 30.27 in 6.0 mi South 3.5 mph - N/A   Overcast
4:53 AM 25.0 °F - 21.9 °F 88% 30.26 in 6.0 mi Calm Calm - N/A   Overcast
5:53 AM 26.1 °F - 23.0 °F 88% 30.26 in 6.0 mi Calm Calm - N/A   Overcast
6:53 AM 26.1 °F - 21.9 °F 84% 30.28 in 7.0 mi Calm Calm - N/A   Overcast
7:53 AM 25.0 °F - 21.0 °F 85% 30.28 in 6.0 mi Calm Calm - N/A   Overcast
8:53 AM 26.1 °F 21.9 °F 21.9 °F 84% 30.29 in 6.0 mi ESE 3.5 mph - N/A   Overcast
10:16 AM 28.4 °F - 23.0 °F 80% 30.29 in 7.0 mi Calm Calm - N/A   Overcast
10:53 AM 30.0 °F - 25.0 °F 82% 30.30 in 6.0 mi Calm Calm - N/A   Haze
11:35 AM 30.2 °F - 24.8 °F 80% 30.27 in 7.0 mi Calm Calm - N/A   Overcast
11:53 AM 32.0 °F - 25.0 °F 75% 30.27 in 7.0 mi Calm Calm - N/A   Scattered Clouds
12:10 PM 33.8 °F 30.8 °F 26.6 °F 75% 30.24 in 7.0 mi NE 3.5 mph - N/A   Mostly Cloudy
12:53 PM 32.0 °F - 26.1 °F 79% 30.23 in 8.0 mi Calm Calm - N/A   Scattered Clouds
1:53 PM 33.1 °F - 25.0 °F 72% 30.22 in 9.0 mi Calm Calm - N/A   Mostly Cloudy
2:53 PM 34.0 °F - 26.1 °F 73% 30.21 in 8.0 mi Calm Calm - N/A   Mostly Cloudy
3:29 PM 33.8 °F - 26.6 °F 75% 30.20 in 8.0 mi Calm Calm - N/A   Overcast
3:53 PM 33.1 °F - 27.0 °F 78% 30.21 in 7.0 mi Calm Calm - N/A   Overcast
4:53 PM 32.0 °F - 27.0 °F 82% 30.19 in 8.0 mi Calm Calm - N/A   Overcast
5:21 PM 32.0 °F - 26.6 °F 80% 30.18 in 8.0 mi Calm Calm - N/A   Partly Cloudy
5:53 PM 32.0 °F - 27.0 °F 82% 30.19 in 8.0 mi Calm Calm - N/A   Clear
6:53 PM 30.9 °F - 26.1 °F 82% 30.18 in 9.0 mi Calm Calm - N/A   Clear
7:53 PM 30.9 °F - 26.1 °F 82% 30.18 in 10.0 mi Calm Calm - N/A   Overcast
8:53 PM 30.0 °F - 26.1 °F 85% 30.17 in 9.0 mi Calm Calm - N/A   Clear
9:53 PM 30.0 °F - 27.0 °F 88% 30.16 in 8.0 mi Calm Calm - N/A   Overcast
10:53 PM 30.9 °F - 28.0 °F 89% 30.15 in 5.0 mi Calm Calm - N/A   Overcast
11:53 PM 32.0 °F - 28.0 °F 85% 30.12 in 5.0 mi Calm Calm - N/A   Overcast